Weather History for Homer, AK

Change the Weather History Date:

Tuesday, January 14, 2014

  Actual Average Record
Temperature  
Mean Temperature 37 °F -  
Max Temperature 41 °F 27 °F 47 °F (1977)
Min Temperature 33 °F 16 °F -14 °F (1934)
Degree Days  
Heating Degree Days 28    
Moisture  
Dew Point 29 °F    
Average Humidity 74    
Maximum Humidity 87    
Minimum Humidity 57    
Precipitation  
Precipitation 0.16 in - - ()
Sea Level Pressure  
Sea Level Pressure 29.04 in    
Wind  
Wind Speed 8 mph (WSW)    
Max Wind Speed 24 mph    
Max Gust Speed 36 mph    
Visibility 8 miles    
Events Rain , Snow    
Averages and records for this station are not official NWS values.
T = Trace of Precipitation, MM = Missing Value Source: NWS Daily Summary

Daily Weather History Graph

Daily Weather History Graph

Search for Another Location

Airport:

Trip Planner

Search our weather history database for the weather conditions in past years. The results will help you decide how hot, cold, wet, or windy it might be!

Date:

Astronomy

Jan. 14, 2014 Rise Set
Actual Time 9:51 AM AKST 4:38 PM AKST
Civil Twilight 8:59 AM AKST 5:31 PM AKST
Nautical Twilight 8:06 AM AKST 6:24 PM AKST
Astronomical Twilight 7:16 AM AKST 7:14 PM AKST
Moon 4:03 PM AKST (1/14) 8:24 AM AKST (1/14)
Length of Visible Light 8h 31m
Length of Day
6h 47m
Waxing Gibbous, 98% of the Moon is Illuminated
Jan 14
Waxing Gibbous
Jan 15
Full
Jan 23
Last Quarter
Jan 30
New
Feb 6
First Quarter

Hourly Weather History & Observations

Time (AKST) Temp. Windchill Dew Point Humidity Pressure Visibility Wind Dir Wind Speed Gust Speed Precip Events Conditions
12:53 AM 34.0 °F 29.8 °F 27.0 °F 75% 28.92 in 10.0 mi NNE 4.6 mph - N/A   Clear
1:53 AM 41.0 °F 35.2 °F 27.0 °F 57% 28.91 in 10.0 mi SE 9.2 mph - N/A   Clear
3:53 AM 39.9 °F 33.9 °F 30.0 °F 68% 28.85 in 10.0 mi ENE 9.2 mph 21.9 mph 0.00 in Rain Light Rain
4:44 AM 39.2 °F 33.6 °F 30.2 °F 70% 28.82 in 6.0 mi East 8.1 mph - 0.02 in Rain Rain
4:53 AM 39.9 °F 33.9 °F 30.9 °F 70% 28.83 in 4.0 mi South 9.2 mph - 0.04 in Rain Rain
5:17 AM 37.4 °F 32.8 °F 30.2 °F 75% 28.81 in 10.0 mi NNE 5.8 mph - 0.03 in   Overcast
5:53 AM 37.0 °F 32.4 °F 32.0 °F 82% 28.79 in 9.0 mi ENE 5.8 mph - 0.03 in   Overcast
6:00 AM 37.4 °F 34.9 °F 33.8 °F 87% 28.78 in 6.0 mi ESE 3.5 mph - 0.01 in Rain Light Rain
6:53 AM 37.9 °F 32.7 °F 32.0 °F 79% 28.76 in 9.0 mi East 6.9 mph - 0.02 in Rain Light Rain
7:51 AM 37.4 °F 31.4 °F 32.0 °F 81% 28.74 in 10.0 mi NE 8.1 mph - 0.03 in   Overcast
7:53 AM 37.0 °F 31.0 °F 32.0 °F 82% 28.74 in 10.0 mi NE 8.1 mph - 0.03 in   Overcast
8:53 AM 37.0 °F 32.4 °F 32.0 °F 82% 28.75 in 10.0 mi NNE 5.8 mph - 0.01 in Rain Light Rain
9:07 AM 37.4 °F 32.8 °F 32.0 °F 81% 28.75 in 10.0 mi NE 5.8 mph - 0.00 in   Overcast
9:21 AM 37.4 °F 32.8 °F 32.0 °F 81% 28.76 in 10.0 mi ENE 5.8 mph - 0.00 in   Overcast
9:53 AM 37.0 °F 32.4 °F 32.0 °F 82% 28.78 in 9.0 mi ENE 5.8 mph - 0.01 in Rain Light Rain
10:48 AM 37.4 °F - 33.8 °F 87% 28.82 in 10.0 mi Calm Calm - 0.00 in   Overcast
10:53 AM 37.0 °F - 33.1 °F 86% 28.82 in 10.0 mi Calm Calm - 0.00 in   Overcast
11:51 AM 37.4 °F 30.8 °F 32.0 °F 81% 28.89 in 9.0 mi West 9.2 mph - 0.01 in Rain Light Rain
11:53 AM 37.0 °F 30.4 °F 32.0 °F 82% 28.90 in 8.0 mi WSW 9.2 mph - 0.01 in   Overcast
12:39 PM 33.8 °F 23.2 °F 26.6 °F 75% 28.97 in 8.0 mi NW 17.3 mph 26.5 mph 0.00 in   Scattered Clouds
12:53 PM 33.1 °F 24.9 °F 26.1 °F 75% 29.01 in 10.0 mi WSW 10.4 mph - 0.00 in   Partly Cloudy
1:22 PM 33.8 °F 28.6 °F 26.6 °F 75% 29.05 in 1.0 mi Variable 5.8 mph - 0.00 in Snow Light Snow
1:40 PM 33.8 °F 29.6 °F 28.4 °F 81% 29.07 in 3.0 mi SW 4.6 mph - 0.00 in Snow Light Snow
1:50 PM 35.6 °F 30.7 °F 28.4 °F 75% 29.09 in 3.0 mi West 5.8 mph - 0.00 in Snow Light Snow
1:53 PM 35.1 °F 27.9 °F 28.0 °F 76% 29.10 in 3.0 mi WSW 9.2 mph - 0.00 in Snow Light Snow
2:03 PM 35.6 °F 28.0 °F 28.4 °F 75% 29.11 in 1.8 mi West 10.4 mph - 0.00 in Snow Light Snow
2:13 PM 35.6 °F 29.2 °F 30.2 °F 81% 29.12 in 2.0 mi WSW 8.1 mph - 0.00 in Snow Light Snow
2:21 PM 35.6 °F 29.2 °F 30.2 °F 81% 29.13 in 7.0 mi WSW 8.1 mph - 0.01 in Snow Light Snow
2:53 PM 37.9 °F 27.1 °F 28.0 °F 68% 29.16 in 10.0 mi WSW 23.0 mph 35.7 mph 0.01 in   Overcast
3:25 PM 37.4 °F 26.1 °F 26.6 °F 65% 29.20 in 10.0 mi WSW 24.2 mph 35.7 mph 0.00 in Snow Light Snow
3:53 PM 37.0 °F 25.6 °F 26.1 °F 65% 29.23 in 9.0 mi WSW 24.2 mph 35.7 mph 0.00 in Snow Light Snow
4:53 PM 37.9 °F 27.3 °F 25.0 °F 60% 29.29 in 10.0 mi WSW 21.9 mph 32.2 mph 0.00 in Snow Light Snow
5:53 PM 37.9 °F 26.8 °F 24.1 °F 57% 29.36 in 10.0 mi WSW 24.2 mph 34.5 mph 0.00 in Snow Light Snow
6:53 PM 37.9 °F 28.5 °F 25.0 °F 60% 29.41 in 10.0 mi West 17.3 mph 27.6 mph 0.00 in   Overcast
7:53 PM 37.9 °F 30.5 °F 26.1 °F 62% 29.47 in 10.0 mi WSW 11.5 mph - N/A   Mostly Cloudy
8:53 PM 37.9 °F 32.7 °F 27.0 °F 65% 29.52 in 9.0 mi WSW 6.9 mph - 0.00 in   Overcast
9:53 PM 37.9 °F 32.7 °F 27.0 °F 65% 29.55 in 10.0 mi South 6.9 mph - 0.00 in   Overcast
10:53 PM 37.0 °F 31.6 °F 28.0 °F 70% 29.58 in 10.0 mi SSW 6.9 mph - N/A   Partly Cloudy
11:53 PM 37.0 °F - 27.0 °F 67% 29.62 in 10.0 mi Calm Calm - N/A   Partly Cloudy